Jackson, MI

5:05 AM EDT on June 23, 2017 (GMT -0400)
Jackson County-Reynolds

Weather History for KJXN - May, 2013

Change the Weather History Date:

Wednesday, May 22, 2013

  Actual Average Record
Temperature  
Mean Temperature 70 °F 60 °F  
Max Temperature 80 °F 71 °F 88 °F (1970)
Min Temperature 60 °F 48 °F 32 °F (1997)
Degree Days  
Heating Degree Days 0 7  
Month to date heating degree days 99 208  
Since 1 July heating degree days 6434 6554  
Cooling Degree Days 5 1  
Month to date cooling degree days 40 15  
Year to date cooling degree days 40 21  
Growing Degree Days 20 (Base 50)    
Moisture  
Dew Point 61 °F    
Average Humidity 72    
Maximum Humidity 97    
Minimum Humidity 47    
Precipitation  
Precipitation 0.06 in 0.11 in 1.59 in (1949)
Month to date precipitation 0.29 2.31  
Year to date precipitation 11.44 9.60  
Sea Level Pressure  
Sea Level Pressure 29.70 in    
Wind  
Wind Speed 10 mph (SSW)    
Max Wind Speed 26 mph    
Max Gust Speed 36 mph    
Visibility 10 miles    
Events Rain    
T = Trace of Precipitation, MM = Missing Value Source: NWS Daily Summary

Daily Weather History Graph

Daily Weather History Graph

Search for Another Location

Airport or City:

Trip Planner

Search our weather history database for the weather conditions in past years. The results will help you decide how hot, cold, wet, or windy it might be!

Date:

Astronomy

May. 22, 2013 Rise Set
Actual Time 6:10 AM EDT 8:59 PM EDT
Civil Twilight 5:37 AM EDT 9:32 PM EDT
Nautical Twilight 4:55 AM EDT 10:14 PM EDT
Astronomical Twilight 4:07 AM EDT 11:02 PM EDT
Moon 6:18 PM EDT (5/22) 4:16 AM EDT (5/22)
Length of Visible Light 15h 55m
Length of Day
14h 49m
Waxing Gibbous, 91% of the Moon is Illuminated
May 22
Waxing Gibbous
May 25
Full
May 31
Last Quarter
Jun 8
New
Jun 16
First Quarter

Hourly Weather History & Observations

Time (EDT) Temp. Dew Point Humidity Pressure Visibility Wind Dir Wind Speed Gust Speed Precip Events Conditions
12:56 AM 70.0 °F 60.1 °F 71% 29.75 in 10.0 mi South 4.6 mph - N/A   Clear
1:56 AM 70.0 °F 60.1 °F 71% 29.74 in 10.0 mi SW 5.8 mph - N/A   Clear
2:56 AM 68.0 °F 60.1 °F 76% 29.72 in 10.0 mi South 5.8 mph - N/A   Clear
3:56 AM 69.1 °F 61.0 °F 75% 29.71 in 10.0 mi SSW 6.9 mph - N/A   Mostly Cloudy
4:56 AM 69.1 °F 61.0 °F 75% 29.71 in 10.0 mi South 6.9 mph - N/A   Overcast
5:56 AM 66.9 °F 62.1 °F 84% 29.72 in 10.0 mi SSW 9.2 mph - 0.00 in Rain Light Rain
6:56 AM 66.0 °F 62.1 °F 87% 29.73 in 10.0 mi South 4.6 mph - 0.00 in   Overcast
7:41 AM 66.2 °F 62.6 °F 88% 29.75 in 10.0 mi South 8.1 mph - N/A   Overcast
7:54 AM 66.2 °F 62.6 °F 88% 29.75 in 10.0 mi SSW 6.9 mph - N/A   Overcast
7:56 AM 66.0 °F 62.1 °F 87% 29.73 in 10.0 mi SSW 6.9 mph - N/A   Overcast
8:56 AM 68.0 °F 63.0 °F 84% 29.72 in 10.0 mi South 10.4 mph - N/A   Mostly Cloudy
9:56 AM 68.0 °F 63.0 °F 84% 29.71 in 10.0 mi South 11.5 mph - N/A   Mostly Cloudy
10:11 AM 69.8 °F 62.6 °F 78% 29.72 in 10.0 mi South 10.4 mph - N/A   Mostly Cloudy
10:56 AM 69.1 °F 62.1 °F 78% 29.70 in 10.0 mi South 13.8 mph 19.6 mph N/A   Overcast
11:32 AM 69.8 °F 60.8 °F 73% 29.71 in 10.0 mi SSW 10.4 mph - N/A   Overcast
11:56 AM 70.0 °F 61.0 °F 73% 29.69 in 10.0 mi South 12.7 mph 19.6 mph N/A   Overcast
12:46 PM 71.6 °F 60.8 °F 69% 29.70 in 10.0 mi SSW 16.1 mph 23.0 mph N/A   Mostly Cloudy
12:56 PM 71.1 °F 61.0 °F 70% 29.69 in 10.0 mi South 17.3 mph 20.7 mph N/A   Overcast
1:06 PM 71.6 °F 60.8 °F 69% 29.70 in 10.0 mi South 11.5 mph 21.9 mph N/A   Mostly Cloudy
1:56 PM 73.0 °F 61.0 °F 66% 29.67 in 10.0 mi South 12.7 mph - N/A   Overcast
2:56 PM 75.9 °F 60.1 °F 58% 29.65 in 10.0 mi SSW 10.4 mph 23.0 mph 0.01 in   Mostly Cloudy
3:56 PM 79.0 °F 57.0 °F 47% 29.64 in 10.0 mi SSW 19.6 mph 26.5 mph N/A   Scattered Clouds
4:56 PM 77.0 °F 55.9 °F 48% 29.64 in 10.0 mi SW 20.7 mph 29.9 mph N/A   Scattered Clouds
5:56 PM 72.0 °F 57.9 °F 61% 29.65 in 10.0 mi SSW 11.5 mph 19.6 mph N/A   Overcast
6:56 PM 66.0 °F 59.0 °F 78% 29.68 in 10.0 mi WNW 12.7 mph 20.7 mph 0.00 in Rain Light Rain
7:56 PM 63.0 °F 61.0 °F 93% 29.69 in 10.0 mi SW 5.8 mph - 0.05 in   Overcast
8:56 PM 62.1 °F 59.0 °F 90% 29.69 in 10.0 mi WSW 4.6 mph - N/A   Clear
9:56 PM 62.1 °F 60.1 °F 93% 29.71 in 10.0 mi WSW 3.5 mph - N/A   Mostly Cloudy
10:56 PM 61.0 °F 59.0 °F 93% 29.72 in 10.0 mi SW 4.6 mph - N/A   Partly Cloudy
11:56 PM 61.0 °F 57.9 °F 90% 29.72 in 10.0 mi SW 5.8 mph - N/A   Clear